owner,sensor,date,latitude,longitude,air_temperature,qcFlag 
LUMCON,ioos:station:LUMCON:102:1,2015-08-01T14:45:00Z,29.1870,-90.6093,28.0,1111122 
LUMCON,ioos:station:LUMCON:102:1,2015-08-01T15:30:00Z,29.1870,-90.6093,28.17,1111122 
LUMCON,ioos:station:LUMCON:102:1,2015-08-01T16:00:00Z,29.1870,-90.6093,28.5,1111122 
LUMCON,ioos:station:LUMCON:102:1,2015-08-01T16:30:00Z,29.1870,-90.6093,28.78,1111122 
LUMCON,ioos:station:LUMCON:102:1,2015-08-01T18:30:00Z,29.1870,-90.6093,30.0,1111122 
LUMCON,ioos:station:LUMCON:102:1,2015-08-01T18:45:00Z,29.1870,-90.6093,30.17,1111122 
LUMCON,ioos:station:LUMCON:102:1,2015-08-01T19:00:00Z,29.1870,-90.6093,30.39,1111122 
LUMCON,ioos:station:LUMCON:102:1,2015-08-01T19:15:00Z,29.1870,-90.6093,30.67,1111122 
LUMCON,ioos:station:LUMCON:102:1,2015-08-01T19:30:00Z,29.1870,-90.6093,30.89,1111122 
LUMCON,ioos:station:LUMCON:102:1,2015-08-01T20:45:00Z,29.1870,-90.6093,32.17,1111122 
LUMCON,ioos:station:LUMCON:102:1,2015-08-01T22:00:00Z,29.1870,-90.6093,32.17,1111122 
LUMCON,ioos:station:LUMCON:102:1,2015-08-01T22:30:00Z,29.1870,-90.6093,32.0,1111122 
LUMCON,ioos:station:LUMCON:102:1,2015-08-01T22:45:00Z,29.1870,-90.6093,31.78,1111122 
LUMCON,ioos:station:LUMCON:102:1,2015-08-02T16:45:00Z,29.1870,-90.6093,30.28,1111122 
LUMCON,ioos:station:LUMCON:102:1,2015-08-02T18:15:00Z,29.1870,-90.6093,30.78,1111122 
LUMCON,ioos:station:LUMCON:102:1,2015-08-02T18:30:00Z,29.1870,-90.6093,30.89,1111122 
LUMCON,ioos:station:LUMCON:102:1,2015-08-02T19:15:00Z,29.1870,-90.6093,31.28,1111122 
LUMCON,ioos:station:LUMCON:102:1,2015-08-02T21:00:00Z,29.1870,-90.6093,31.78,1111122 
LUMCON,ioos:station:LUMCON:102:1,2015-08-02T21:15:00Z,29.1870,-90.6093,31.67,1111122 
LUMCON,ioos:station:LUMCON:102:1,2015-08-02T21:30:00Z,29.1870,-90.6093,31.67,1111122 
LUMCON,ioos:station:LUMCON:102:1,2015-08-02T21:45:00Z,29.1870,-90.6093,31.67,1111122 
LUMCON,ioos:station:LUMCON:102:1,2015-08-02T22:00:00Z,29.1870,-90.6093,31.67,1111122 
LUMCON,ioos:station:LUMCON:102:1,2015-08-02T23:15:00Z,29.1870,-90.6093,29.89,1111122 
LUMCON,ioos:station:LUMCON:102:1,2015-08-03T19:30:00Z,29.1870,-90.6093,25.56,1111122 
LUMCON,ioos:station:LUMCON:102:1,2015-08-03T19:45:00Z,29.1870,-90.6093,25.56,1111122 
LUMCON,ioos:station:LUMCON:102:1,2015-08-03T20:00:00Z,29.1870,-90.6093,25.78,1111122 
LUMCON,ioos:station:LUMCON:102:1,2015-08-03T20:15:00Z,29.1870,-90.6093,26.28,1111122 
LUMCON,ioos:station:LUMCON:102:1,2015-08-03T20:30:00Z,29.1870,-90.6093,26.5,1111122 
LUMCON,ioos:station:LUMCON:102:1,2015-08-03T20:45:00Z,29.1870,-90.6093,27.17,1111122 
LUMCON,ioos:station:LUMCON:102:1,2015-08-03T21:00:00Z,29.1870,-90.6093,27.5,1111122 
LUMCON,ioos:station:LUMCON:102:1,2015-08-03T21:15:00Z,29.1870,-90.6093,27.5,1111122 
LUMCON,ioos:station:LUMCON:102:1,2015-08-03T21:30:00Z,29.1870,-90.6093,27.17,1111122 
LUMCON,ioos:station:LUMCON:102:1,2015-08-24T22:30:00Z,29.1870,-90.6093,33.28,1111122 
LUMCON,ioos:station:LUMCON:102:1,2015-08-24T22:45:00Z,29.1870,-90.6093,33.67,1111122 
LUMCON,ioos:station:LUMCON:102:1,2015-08-24T23:00:00Z,29.1870,-90.6093,33.5,1111122 
LUMCON,ioos:station:LUMCON:102:1,2015-08-24T23:15:00Z,29.1870,-90.6093,33.5,1111122 
LUMCON,ioos:station:LUMCON:102:1,2015-08-24T23:30:00Z,29.1870,-90.6093,33.56,1111122 
LUMCON,ioos:station:LUMCON:102:1,2015-08-24T23:45:00Z,29.1870,-90.6093,33.5,1111122 
LUMCON,ioos:station:LUMCON:102:1,2015-08-25T05:00:00Z,29.1870,-90.6093,31.67,1111122 
LUMCON,ioos:station:LUMCON:102:1,2015-08-25T05:15:00Z,29.1870,-90.6093,31.5,1111122 
LUMCON,ioos:station:LUMCON:102:1,2015-08-25T05:30:00Z,29.1870,-90.6093,31.39,1111122 
LUMCON,ioos:station:LUMCON:102:1,2015-08-25T05:45:00Z,29.1870,-90.6093,31.5,1111122 
LUMCON,ioos:station:LUMCON:102:1,2015-08-25T06:00:00Z,29.1870,-90.6093,31.5,1111122 
LUMCON,ioos:station:LUMCON:102:1,2015-08-25T06:15:00Z,29.1870,-90.6093,31.28,1111122 
LUMCON,ioos:station:LUMCON:102:1,2015-08-25T06:30:00Z,29.1870,-90.6093,31.06,1111122 
LUMCON,ioos:station:LUMCON:102:1,2015-08-25T06:45:00Z,29.1870,-90.6093,30.89,1111122 
LUMCON,ioos:station:LUMCON:102:1,2015-08-25T07:00:00Z,29.1870,-90.6093,30.56,1111122 
LUMCON,ioos:station:LUMCON:102:1,2015-08-25T07:15:00Z,29.1870,-90.6093,30.56,1111122 
LUMCON,ioos:station:LUMCON:102:1,2015-08-25T07:30:00Z,29.1870,-90.6093,30.56,1111122 
LUMCON,ioos:station:LUMCON:102:1,2015-08-25T07:45:00Z,29.1870,-90.6093,30.28,1111122 
LUMCON,ioos:station:LUMCON:102:1,2015-08-25T08:00:00Z,29.1870,-90.6093,30.06,1111122 
LUMCON,ioos:station:LUMCON:102:1,2015-08-25T08:15:00Z,29.1870,-90.6093,30.06,1111122 
LUMCON,ioos:station:LUMCON:102:1,2015-08-25T08:30:00Z,29.1870,-90.6093,30.0,1111122 
LUMCON,ioos:station:LUMCON:102:1,2015-08-25T08:45:00Z,29.1870,-90.6093,29.89,1111122 
LUMCON,ioos:station:LUMCON:102:1,2015-08-25T09:00:00Z,29.1870,-90.6093,30.06,1111122 
LUMCON,ioos:station:LUMCON:102:1,2015-08-25T09:15:00Z,29.1870,-90.6093,30.0,1111122 
LUMCON,ioos:station:LUMCON:102:1,2015-08-25T09:30:00Z,29.1870,-90.6093,30.0,1111122 
LUMCON,ioos:station:LUMCON:102:1,2015-08-25T09:45:00Z,29.1870,-90.6093,29.89,1111122 
LUMCON,ioos:station:LUMCON:102:1,2015-08-25T10:00:00Z,29.1870,-90.6093,29.67,1111122 
LUMCON,ioos:station:LUMCON:102:1,2015-08-25T10:15:00Z,29.1870,-90.6093,29.67,1111122 
LUMCON,ioos:station:LUMCON:102:1,2015-08-25T10:30:00Z,29.1870,-90.6093,29.56,1111122 
LUMCON,ioos:station:LUMCON:102:1,2015-08-25T10:45:00Z,29.1870,-90.6093,29.5,1111122 
LUMCON,ioos:station:LUMCON:102:1,2015-08-25T11:00:00Z,29.1870,-90.6093,29.39,1111122 
LUMCON,ioos:station:LUMCON:102:1,2015-08-25T11:15:00Z,29.1870,-90.6093,29.17,1111122 
LUMCON,ioos:station:LUMCON:102:1,2015-08-25T11:30:00Z,29.1870,-90.6093,28.89,1111122 
LUMCON,ioos:station:LUMCON:102:1,2015-08-25T11:45:00Z,29.1870,-90.6093,28.78,1111122 
LUMCON,ioos:station:LUMCON:102:1,2015-08-25T12:00:00Z,29.1870,-90.6093,28.78,1111122 
LUMCON,ioos:station:LUMCON:102:1,2015-08-25T12:15:00Z,29.1870,-90.6093,28.89,1111122 
LUMCON,ioos:station:LUMCON:102:1,2015-08-25T12:30:00Z,29.1870,-90.6093,28.67,1111122 
LUMCON,ioos:station:LUMCON:102:1,2015-08-25T12:45:00Z,29.1870,-90.6093,28.56,1111122 
LUMCON,ioos:station:LUMCON:102:1,2015-08-25T13:00:00Z,29.1870,-90.6093,28.56,1111122 
LUMCON,ioos:station:LUMCON:102:1,2015-08-25T13:15:00Z,29.1870,-90.6093,28.56,1111122 
LUMCON,ioos:station:LUMCON:102:1,2015-08-25T13:30:00Z,29.1870,-90.6093,28.39,1111122 
LUMCON,ioos:station:LUMCON:102:1,2015-08-25T13:45:00Z,29.1870,-90.6093,28.28,1111122 
LUMCON,ioos:station:LUMCON:102:1,2015-08-25T14:00:00Z,29.1870,-90.6093,28.28,1111122 
LUMCON,ioos:station:LUMCON:102:1,2015-08-25T14:15:00Z,29.1870,-90.6093,28.06,1111122 
LUMCON,ioos:station:LUMCON:102:1,2015-08-25T14:30:00Z,29.1870,-90.6093,27.89,1111122 
LUMCON,ioos:station:LUMCON:102:1,2015-08-25T14:45:00Z,29.1870,-90.6093,27.89,1111122 
LUMCON,ioos:station:LUMCON:102:1,2015-08-25T15:00:00Z,29.1870,-90.6093,27.89,1111122 
LUMCON,ioos:station:LUMCON:102:1,2015-08-25T15:15:00Z,29.1870,-90.6093,27.78,1111122 
LUMCON,ioos:station:LUMCON:102:1,2015-08-25T15:30:00Z,29.1870,-90.6093,27.67,1111122 
LUMCON,ioos:station:LUMCON:102:1,2015-08-25T15:45:00Z,29.1870,-90.6093,27.67,1111122 
LUMCON,ioos:station:LUMCON:102:1,2015-08-25T16:00:00Z,29.1870,-90.6093,27.67,1111122 
LUMCON,ioos:station:LUMCON:102:1,2015-08-25T16:15:00Z,29.1870,-90.6093,27.78,1111122 
LUMCON,ioos:station:LUMCON:102:1,2015-08-25T16:30:00Z,29.1870,-90.6093,27.89,1111122 
LUMCON,ioos:station:LUMCON:102:1,2015-08-25T16:45:00Z,29.1870,-90.6093,28.0,1111122 
LUMCON,ioos:station:LUMCON:102:1,2015-08-25T17:00:00Z,29.1870,-90.6093,28.0,1111122 
LUMCON,ioos:station:LUMCON:102:1,2015-08-25T17:15:00Z,29.1870,-90.6093,28.0,1111122 
LUMCON,ioos:station:LUMCON:102:1,2015-08-25T17:30:00Z,29.1870,-90.6093,28.28,1111122 
LUMCON,ioos:station:LUMCON:102:1,2015-08-25T17:45:00Z,29.1870,-90.6093,28.28,1111122 
LUMCON,ioos:station:LUMCON:102:1,2015-08-25T18:00:00Z,29.1870,-90.6093,28.39,1111122 
LUMCON,ioos:station:LUMCON:102:1,2015-08-25T18:15:00Z,29.1870,-90.6093,28.5,1111122 
LUMCON,ioos:station:LUMCON:102:1,2015-08-25T18:30:00Z,29.1870,-90.6093,28.56,1111122 
LUMCON,ioos:station:LUMCON:102:1,2015-08-25T18:45:00Z,29.1870,-90.6093,28.78,1111122 
LUMCON,ioos:station:LUMCON:102:1,2015-08-25T19:00:00Z,29.1870,-90.6093,28.89,1111122 
LUMCON,ioos:station:LUMCON:102:1,2015-08-25T19:15:00Z,29.1870,-90.6093,29.0,1111122 
LUMCON,ioos:station:LUMCON:102:1,2015-08-25T19:30:00Z,29.1870,-90.6093,29.06,1111122 
LUMCON,ioos:station:LUMCON:102:1,2015-08-25T19:45:00Z,29.1870,-90.6093,29.17,1111122 
LUMCON,ioos:station:LUMCON:102:1,2015-08-25T20:00:00Z,29.1870,-90.6093,29.28,1111122 
LUMCON,ioos:station:LUMCON:102:1,2015-08-25T20:15:00Z,29.1870,-90.6093,29.5,1111122 
LUMCON,ioos:station:LUMCON:102:1,2015-08-25T20:30:00Z,29.1870,-90.6093,29.67,1111122 
LUMCON,ioos:station:LUMCON:102:1,2015-08-25T20:45:00Z,29.1870,-90.6093,29.89,1111122 
LUMCON,ioos:station:LUMCON:102:1,2015-08-25T21:00:00Z,29.1870,-90.6093,29.89,1111122 
LUMCON,ioos:station:LUMCON:102:1,2015-08-25T21:15:00Z,29.1870,-90.6093,30.0,1111122 
LUMCON,ioos:station:LUMCON:102:1,2015-08-25T21:30:00Z,29.1870,-90.6093,30.06,1111122 
LUMCON,ioos:station:LUMCON:102:1,2015-08-25T21:45:00Z,29.1870,-90.6093,30.17,1111122 
LUMCON,ioos:station:LUMCON:102:1,2015-08-25T22:00:00Z,29.1870,-90.6093,30.17,1111122 
LUMCON,ioos:station:LUMCON:102:1,2015-08-25T22:15:00Z,29.1870,-90.6093,30.28,1111122 
LUMCON,ioos:station:LUMCON:102:1,2015-08-25T22:30:00Z,29.1870,-90.6093,30.39,1111122 
LUMCON,ioos:station:LUMCON:102:1,2015-08-25T22:45:00Z,29.1870,-90.6093,30.5,1111122 
LUMCON,ioos:station:LUMCON:102:1,2015-08-25T23:00:00Z,29.1870,-90.6093,30.56,1111122 
LUMCON,ioos:station:LUMCON:102:1,2015-08-25T23:15:00Z,29.1870,-90.6093,30.56,1111122 
LUMCON,ioos:station:LUMCON:102:1,2015-08-25T23:30:00Z,29.1870,-90.6093,30.78,1111122 
LUMCON,ioos:station:LUMCON:102:1,2015-08-25T23:45:00Z,29.1870,-90.6093,30.89,1111122 
LUMCON,ioos:station:LUMCON:102:1,2015-08-26T05:00:00Z,29.1870,-90.6093,28.06,1111122 
LUMCON,ioos:station:LUMCON:102:1,2015-08-26T05:15:00Z,29.1870,-90.6093,28.0,1111122 
LUMCON,ioos:station:LUMCON:102:1,2015-08-26T05:30:00Z,29.1870,-90.6093,27.78,1111122 
LUMCON,ioos:station:LUMCON:102:1,2015-08-26T05:45:00Z,29.1870,-90.6093,27.5,1111122 
LUMCON,ioos:station:LUMCON:102:1,2015-08-26T06:00:00Z,29.1870,-90.6093,27.5,1111122 
LUMCON,ioos:station:LUMCON:102:1,2015-08-26T06:15:00Z,29.1870,-90.6093,27.56,1111122 
LUMCON,ioos:station:LUMCON:102:1,2015-08-26T06:30:00Z,29.1870,-90.6093,27.78,1111122 
LUMCON,ioos:station:LUMCON:102:1,2015-08-26T06:45:00Z,29.1870,-90.6093,27.67,1111122 
LUMCON,ioos:station:LUMCON:102:1,2015-08-26T07:00:00Z,29.1870,-90.6093,27.39,1111122 
LUMCON,ioos:station:LUMCON:102:1,2015-08-26T07:15:00Z,29.1870,-90.6093,27.28,1111122 
LUMCON,ioos:station:LUMCON:102:1,2015-08-26T07:30:00Z,29.1870,-90.6093,27.28,1111122 
LUMCON,ioos:station:LUMCON:102:1,2015-08-26T07:45:00Z,29.1870,-90.6093,27.17,1111122 
LUMCON,ioos:station:LUMCON:102:1,2015-08-26T08:00:00Z,29.1870,-90.6093,27.06,1111122 
LUMCON,ioos:station:LUMCON:102:1,2015-08-26T08:15:00Z,29.1870,-90.6093,27.5,1111122 
LUMCON,ioos:station:LUMCON:102:1,2015-08-26T08:30:00Z,29.1870,-90.6093,26.89,1111122 
LUMCON,ioos:station:LUMCON:102:1,2015-08-26T08:45:00Z,29.1870,-90.6093,26.78,1111122 
LUMCON,ioos:station:LUMCON:102:1,2015-08-26T09:00:00Z,29.1870,-90.6093,26.89,1111122 
LUMCON,ioos:station:LUMCON:102:1,2015-08-26T09:15:00Z,29.1870,-90.6093,27.0,1111122 
LUMCON,ioos:station:LUMCON:102:1,2015-08-26T09:30:00Z,29.1870,-90.6093,26.89,1111122 
LUMCON,ioos:station:LUMCON:102:1,2015-08-26T09:45:00Z,29.1870,-90.6093,26.67,1111122 
LUMCON,ioos:station:LUMCON:102:1,2015-08-26T10:00:00Z,29.1870,-90.6093,26.67,1111122 
LUMCON,ioos:station:LUMCON:102:1,2015-08-26T10:15:00Z,29.1870,-90.6093,26.67,1111122 
LUMCON,ioos:station:LUMCON:102:1,2015-08-26T10:30:00Z,29.1870,-90.6093,26.67,1111122 
LUMCON,ioos:station:LUMCON:102:1,2015-08-26T10:45:00Z,29.1870,-90.6093,26.67,1111122 
LUMCON,ioos:station:LUMCON:102:1,2015-08-26T11:00:00Z,29.1870,-90.6093,26.56,1111122 
LUMCON,ioos:station:LUMCON:102:1,2015-08-26T11:15:00Z,29.1870,-90.6093,26.56,1111122 
LUMCON,ioos:station:LUMCON:102:1,2015-08-26T11:30:00Z,29.1870,-90.6093,26.5,1111122 
LUMCON,ioos:station:LUMCON:102:1,2015-08-26T11:45:00Z,29.1870,-90.6093,26.06,1111122 
LUMCON,ioos:station:LUMCON:102:1,2015-08-26T12:00:00Z,29.1870,-90.6093,26.0,1111122 
LUMCON,ioos:station:LUMCON:102:1,2015-08-26T12:15:00Z,29.1870,-90.6093,26.0,1111122 
LUMCON,ioos:station:LUMCON:102:1,2015-08-26T12:30:00Z,29.1870,-90.6093,25.89,1111122 
LUMCON,ioos:station:LUMCON:102:1,2015-08-26T12:45:00Z,29.1870,-90.6093,25.78,1111122 
LUMCON,ioos:station:LUMCON:102:1,2015-08-26T13:00:00Z,29.1870,-90.6093,25.67,1111122 
LUMCON,ioos:station:LUMCON:102:1,2015-08-26T13:15:00Z,29.1870,-90.6093,25.56,1111122 
LUMCON,ioos:station:LUMCON:102:1,2015-08-26T13:30:00Z,29.1870,-90.6093,25.5,1111122 
LUMCON,ioos:station:LUMCON:102:1,2015-08-26T13:45:00Z,29.1870,-90.6093,25.56,1111122 
LUMCON,ioos:station:LUMCON:102:1,2015-08-26T14:00:00Z,29.1870,-90.6093,25.56,1111122 
LUMCON,ioos:station:LUMCON:102:1,2015-08-26T14:15:00Z,29.1870,-90.6093,25.67,1111122 
LUMCON,ioos:station:LUMCON:102:1,2015-08-26T14:30:00Z,29.1870,-90.6093,25.78,1111122 
LUMCON,ioos:station:LUMCON:102:1,2015-08-26T14:45:00Z,29.1870,-90.6093,25.78,1111122 
LUMCON,ioos:station:LUMCON:102:1,2015-08-26T15:00:00Z,29.1870,-90.6093,25.89,1111122 
LUMCON,ioos:station:LUMCON:102:1,2015-08-26T15:15:00Z,29.1870,-90.6093,25.89,1111122 
LUMCON,ioos:station:LUMCON:102:1,2015-08-26T15:30:00Z,29.1870,-90.6093,26.0,1111122 
LUMCON,ioos:station:LUMCON:102:1,2015-08-26T15:45:00Z,29.1870,-90.6093,26.06,1111122 
LUMCON,ioos:station:LUMCON:102:1,2015-08-26T16:00:00Z,29.1870,-90.6093,26.06,1111122 
LUMCON,ioos:station:LUMCON:102:1,2015-08-26T16:15:00Z,29.1870,-90.6093,26.06,1111122 
LUMCON,ioos:station:LUMCON:102:1,2015-08-26T16:30:00Z,29.1870,-90.6093,26.17,1111122 
LUMCON,ioos:station:LUMCON:102:1,2015-08-26T16:45:00Z,29.1870,-90.6093,26.06,1111122 
LUMCON,ioos:station:LUMCON:102:1,2015-08-26T17:00:00Z,29.1870,-90.6093,26.28,1111122 
LUMCON,ioos:station:LUMCON:102:1,2015-08-26T17:15:00Z,29.1870,-90.6093,26.17,1111122 
LUMCON,ioos:station:LUMCON:102:1,2015-08-26T17:30:00Z,29.1870,-90.6093,26.28,1111122 
LUMCON,ioos:station:LUMCON:102:1,2015-08-26T17:45:00Z,29.1870,-90.6093,26.28,1111122 
LUMCON,ioos:station:LUMCON:102:1,2015-08-26T18:00:00Z,29.1870,-90.6093,26.39,1111122 
LUMCON,ioos:station:LUMCON:102:1,2015-08-26T18:15:00Z,29.1870,-90.6093,26.5,1111122 
LUMCON,ioos:station:LUMCON:102:1,2015-08-26T18:30:00Z,29.1870,-90.6093,26.39,1111122 
LUMCON,ioos:station:LUMCON:102:1,2015-08-26T18:45:00Z,29.1870,-90.6093,26.56,1111122 
LUMCON,ioos:station:LUMCON:102:1,2015-08-26T19:00:00Z,29.1870,-90.6093,26.56,1111122 
LUMCON,ioos:station:LUMCON:102:1,2015-08-26T19:15:00Z,29.1870,-90.6093,26.78,1111122 
LUMCON,ioos:station:LUMCON:102:1,2015-08-26T19:30:00Z,29.1870,-90.6093,26.89,1111122 
LUMCON,ioos:station:LUMCON:102:1,2015-08-26T19:45:00Z,29.1870,-90.6093,26.89,1111122 
LUMCON,ioos:station:LUMCON:102:1,2015-08-26T20:15:00Z,29.1870,-90.6093,27.56,1111122 
LUMCON,ioos:station:LUMCON:102:1,2015-08-26T20:45:00Z,29.1870,-90.6093,27.67,1111122 
LUMCON,ioos:station:LUMCON:102:1,2015-08-26T21:00:00Z,29.1870,-90.6093,27.78,1111122 
LUMCON,ioos:station:LUMCON:102:1,2015-08-26T21:15:00Z,29.1870,-90.6093,27.78,1111122 
LUMCON,ioos:station:LUMCON:102:1,2015-08-26T21:30:00Z,29.1870,-90.6093,27.78,1111122 
LUMCON,ioos:station:LUMCON:102:1,2015-08-26T21:45:00Z,29.1870,-90.6093,28.0,1111122 
LUMCON,ioos:station:LUMCON:102:1,2015-08-26T22:00:00Z,29.1870,-90.6093,28.0,1111122 
LUMCON,ioos:station:LUMCON:102:1,2015-08-26T22:15:00Z,29.1870,-90.6093,28.0,1111122 
LUMCON,ioos:station:LUMCON:102:1,2015-08-26T22:30:00Z,29.1870,-90.6093,28.06,1111122 
LUMCON,ioos:station:LUMCON:102:1,2015-08-26T22:45:00Z,29.1870,-90.6093,28.17,1111122 
LUMCON,ioos:station:LUMCON:102:1,2015-08-26T23:00:00Z,29.1870,-90.6093,28.17,1111122 
LUMCON,ioos:station:LUMCON:102:1,2015-08-26T23:15:00Z,29.1870,-90.6093,28.17,1111122 
LUMCON,ioos:station:LUMCON:102:1,2015-08-26T23:30:00Z,29.1870,-90.6093,28.06,1111122 
LUMCON,ioos:station:LUMCON:102:1,2015-08-26T23:45:00Z,29.1870,-90.6093,28.06,1111122 
LUMCON,ioos:station:LUMCON:102:1,2015-08-27T05:00:00Z,29.1870,-90.6093,26.56,1111122 
LUMCON,ioos:station:LUMCON:102:1,2015-08-27T05:15:00Z,29.1870,-90.6093,26.56,1111122 
LUMCON,ioos:station:LUMCON:102:1,2015-08-27T05:30:00Z,29.1870,-90.6093,26.5,1111122 
LUMCON,ioos:station:LUMCON:102:1,2015-08-27T05:45:00Z,29.1870,-90.6093,26.39,1111122 
LUMCON,ioos:station:LUMCON:102:1,2015-08-27T06:00:00Z,29.1870,-90.6093,26.06,1111122 
LUMCON,ioos:station:LUMCON:102:1,2015-08-27T06:15:00Z,29.1870,-90.6093,25.89,1111122 
LUMCON,ioos:station:LUMCON:102:1,2015-08-27T06:30:00Z,29.1870,-90.6093,25.56,1111122 
LUMCON,ioos:station:LUMCON:102:1,2015-08-27T06:45:00Z,29.1870,-90.6093,25.56,1111122 
LUMCON,ioos:station:LUMCON:102:1,2015-08-27T07:00:00Z,29.1870,-90.6093,25.5,1111122 
LUMCON,ioos:station:LUMCON:102:1,2015-08-27T07:15:00Z,29.1870,-90.6093,25.39,1111122 
LUMCON,ioos:station:LUMCON:102:1,2015-08-27T07:30:00Z,29.1870,-90.6093,25.39,1111122 
LUMCON,ioos:station:LUMCON:102:1,2015-08-27T07:45:00Z,29.1870,-90.6093,25.67,1111122 
LUMCON,ioos:station:LUMCON:102:1,2015-08-27T08:00:00Z,29.1870,-90.6093,25.78,1111122 
LUMCON,ioos:station:LUMCON:102:1,2015-08-27T08:15:00Z,29.1870,-90.6093,25.67,1111122 
LUMCON,ioos:station:LUMCON:102:1,2015-08-27T08:30:00Z,29.1870,-90.6093,25.78,1111122 
LUMCON,ioos:station:LUMCON:102:1,2015-08-27T08:45:00Z,29.1870,-90.6093,25.78,1111122 
LUMCON,ioos:station:LUMCON:102:1,2015-08-27T09:00:00Z,29.1870,-90.6093,25.78,1111122 
LUMCON,ioos:station:LUMCON:102:1,2015-08-27T09:15:00Z,29.1870,-90.6093,25.89,1111122 
LUMCON,ioos:station:LUMCON:102:1,2015-08-27T09:30:00Z,29.1870,-90.6093,26.06,1111122 
LUMCON,ioos:station:LUMCON:102:1,2015-08-27T09:45:00Z,29.1870,-90.6093,26.0,1111122 
LUMCON,ioos:station:LUMCON:102:1,2015-08-27T10:00:00Z,29.1870,-90.6093,25.78,1111122 
LUMCON,ioos:station:LUMCON:102:1,2015-08-27T10:15:00Z,29.1870,-90.6093,25.78,1111122 
LUMCON,ioos:station:LUMCON:102:1,2015-08-27T10:30:00Z,29.1870,-90.6093,25.56,1111122 
LUMCON,ioos:station:LUMCON:102:1,2015-08-27T10:45:00Z,29.1870,-90.6093,25.56,1111122 
LUMCON,ioos:station:LUMCON:102:1,2015-08-27T11:00:00Z,29.1870,-90.6093,25.5,1111122 
LUMCON,ioos:station:LUMCON:102:1,2015-08-27T11:15:00Z,29.1870,-90.6093,25.17,1111122 
LUMCON,ioos:station:LUMCON:102:1,2015-08-27T11:30:00Z,29.1870,-90.6093,25.06,1111122 
LUMCON,ioos:station:LUMCON:102:1,2015-08-27T11:45:00Z,29.1870,-90.6093,25.0,1111122 
LUMCON,ioos:station:LUMCON:102:1,2015-08-27T12:00:00Z,29.1870,-90.6093,24.89,1111122 
LUMCON,ioos:station:LUMCON:102:1,2015-08-27T12:15:00Z,29.1870,-90.6093,24.89,1111122 
LUMCON,ioos:station:LUMCON:102:1,2015-08-27T12:30:00Z,29.1870,-90.6093,24.89,1111122 
LUMCON,ioos:station:LUMCON:102:1,2015-08-27T12:45:00Z,29.1870,-90.6093,25.0,1111122 
LUMCON,ioos:station:LUMCON:102:1,2015-08-27T13:00:00Z,29.1870,-90.6093,24.78,1111122 
LUMCON,ioos:station:LUMCON:102:1,2015-08-27T13:15:00Z,29.1870,-90.6093,24.78,1111122 
LUMCON,ioos:station:LUMCON:102:1,2015-08-27T13:30:00Z,29.1870,-90.6093,24.78,1111122 
LUMCON,ioos:station:LUMCON:102:1,2015-08-27T13:45:00Z,29.1870,-90.6093,24.67,1111122 
LUMCON,ioos:station:LUMCON:102:1,2015-08-27T14:00:00Z,29.1870,-90.6093,24.67,1111122 
LUMCON,ioos:station:LUMCON:102:1,2015-08-27T14:15:00Z,29.1870,-90.6093,24.78,1111122 
LUMCON,ioos:station:LUMCON:102:1,2015-08-27T14:30:00Z,29.1870,-90.6093,24.78,1111122 
LUMCON,ioos:station:LUMCON:102:1,2015-08-27T14:45:00Z,29.1870,-90.6093,24.89,1111122 
LUMCON,ioos:station:LUMCON:102:1,2015-08-27T15:00:00Z,29.1870,-90.6093,25.06,1111122 
LUMCON,ioos:station:LUMCON:102:1,2015-08-27T15:15:00Z,29.1870,-90.6093,25.06,1111122 
LUMCON,ioos:station:LUMCON:102:1,2015-08-27T15:30:00Z,29.1870,-90.6093,25.17,1111122 
LUMCON,ioos:station:LUMCON:102:1,2015-08-27T15:45:00Z,29.1870,-90.6093,25.28,1111122 
LUMCON,ioos:station:LUMCON:102:1,2015-08-27T16:00:00Z,29.1870,-90.6093,25.39,1111122 
LUMCON,ioos:station:LUMCON:102:1,2015-08-27T16:15:00Z,29.1870,-90.6093,25.67,1111122 
LUMCON,ioos:station:LUMCON:102:1,2015-08-27T16:30:00Z,29.1870,-90.6093,25.78,1111122 
LUMCON,ioos:station:LUMCON:102:1,2015-08-27T16:45:00Z,29.1870,-90.6093,25.89,1111122 
LUMCON,ioos:station:LUMCON:102:1,2015-08-27T17:00:00Z,29.1870,-90.6093,26.06,1111122 
LUMCON,ioos:station:LUMCON:102:1,2015-08-27T17:15:00Z,29.1870,-90.6093,26.06,1111122 
LUMCON,ioos:station:LUMCON:102:1,2015-08-27T17:30:00Z,29.1870,-90.6093,26.17,1111122 
LUMCON,ioos:station:LUMCON:102:1,2015-08-27T17:45:00Z,29.1870,-90.6093,26.17,1111122 
LUMCON,ioos:station:LUMCON:102:1,2015-08-27T18:00:00Z,29.1870,-90.6093,26.28,1111122 
LUMCON,ioos:station:LUMCON:102:1,2015-08-27T18:15:00Z,29.1870,-90.6093,26.5,1111122 
LUMCON,ioos:station:LUMCON:102:1,2015-08-27T18:30:00Z,29.1870,-90.6093,26.39,1111122 
LUMCON,ioos:station:LUMCON:102:1,2015-08-27T18:45:00Z,29.1870,-90.6093,26.39,1111122 
LUMCON,ioos:station:LUMCON:102:1,2015-08-27T19:00:00Z,29.1870,-90.6093,26.56,1111122 
LUMCON,ioos:station:LUMCON:102:1,2015-08-27T19:15:00Z,29.1870,-90.6093,26.67,1111122 
LUMCON,ioos:station:LUMCON:102:1,2015-08-27T19:30:00Z,29.1870,-90.6093,26.67,1111122 
LUMCON,ioos:station:LUMCON:102:1,2015-08-27T19:45:00Z,29.1870,-90.6093,26.78,1111122 
LUMCON,ioos:station:LUMCON:102:1,2015-08-27T20:00:00Z,29.1870,-90.6093,26.89,1111122 
LUMCON,ioos:station:LUMCON:102:1,2015-08-27T20:15:00Z,29.1870,-90.6093,27.17,1111122 
LUMCON,ioos:station:LUMCON:102:1,2015-08-27T20:30:00Z,29.1870,-90.6093,27.28,1111122 
LUMCON,ioos:station:LUMCON:102:1,2015-08-27T20:45:00Z,29.1870,-90.6093,27.5,1111122 
LUMCON,ioos:station:LUMCON:102:1,2015-08-27T21:00:00Z,29.1870,-90.6093,27.39,1111122 
LUMCON,ioos:station:LUMCON:102:1,2015-08-27T21:15:00Z,29.1870,-90.6093,27.56,1111122 
LUMCON,ioos:station:LUMCON:102:1,2015-08-27T21:30:00Z,29.1870,-90.6093,27.67,1111122 
LUMCON,ioos:station:LUMCON:102:1,2015-08-27T21:45:00Z,29.1870,-90.6093,27.67,1111122 
LUMCON,ioos:station:LUMCON:102:1,2015-08-27T22:00:00Z,29.1870,-90.6093,27.67,1111122 
LUMCON,ioos:station:LUMCON:102:1,2015-08-27T22:15:00Z,29.1870,-90.6093,27.67,1111122 
LUMCON,ioos:station:LUMCON:102:1,2015-08-27T22:30:00Z,29.1870,-90.6093,27.67,1111122 
LUMCON,ioos:station:LUMCON:102:1,2015-08-27T22:45:00Z,29.1870,-90.6093,27.78,1111122 
LUMCON,ioos:station:LUMCON:102:1,2015-08-27T23:00:00Z,29.1870,-90.6093,27.78,1111122 
LUMCON,ioos:station:LUMCON:102:1,2015-08-27T23:15:00Z,29.1870,-90.6093,27.89,1111122 
LUMCON,ioos:station:LUMCON:102:1,2015-08-27T23:30:00Z,29.1870,-90.6093,28.0,1111122 
LUMCON,ioos:station:LUMCON:102:1,2015-08-27T23:45:00Z,29.1870,-90.6093,28.0,1111122 
LUMCON,ioos:station:LUMCON:102:1,2015-08-28T05:00:00Z,29.1870,-90.6093,27.39,1111122 
LUMCON,ioos:station:LUMCON:102:1,2015-08-28T05:15:00Z,29.1870,-90.6093,27.39,1111122 
LUMCON,ioos:station:LUMCON:102:1,2015-08-28T05:30:00Z,29.1870,-90.6093,27.39,1111122 
LUMCON,ioos:station:LUMCON:102:1,2015-08-28T05:45:00Z,29.1870,-90.6093,27.28,1111122 
LUMCON,ioos:station:LUMCON:102:1,2015-08-28T06:00:00Z,29.1870,-90.6093,27.17,1111122 
LUMCON,ioos:station:LUMCON:102:1,2015-08-28T06:15:00Z,29.1870,-90.6093,27.17,1111122 
LUMCON,ioos:station:LUMCON:102:1,2015-08-28T06:30:00Z,29.1870,-90.6093,27.17,1111122 
LUMCON,ioos:station:LUMCON:102:1,2015-08-28T06:45:00Z,29.1870,-90.6093,27.0,1111122 
LUMCON,ioos:station:LUMCON:102:1,2015-08-28T07:00:00Z,29.1870,-90.6093,26.89,1111122 
LUMCON,ioos:station:LUMCON:102:1,2015-08-28T07:15:00Z,29.1870,-90.6093,26.78,1111122 
LUMCON,ioos:station:LUMCON:102:1,2015-08-28T07:30:00Z,29.1870,-90.6093,26.56,1111122 
LUMCON,ioos:station:LUMCON:102:1,2015-08-28T07:45:00Z,29.1870,-90.6093,26.5,1111122 
LUMCON,ioos:station:LUMCON:102:1,2015-08-28T08:00:00Z,29.1870,-90.6093,26.17,1111122 
LUMCON,ioos:station:LUMCON:102:1,2015-08-28T08:15:00Z,29.1870,-90.6093,26.39,1111122 